Location: Newark
(48.9320°N, 2.2664°E)
Time: 22:33:17
(UTC+00:00)

A-11 Canister half - All Passes

Search period start: 23 February 2020 00:00
Search period end: 04 March 2020 00:00
Orbit: 1517 x 1683 km, 47.2° (Epoch: 22 February)

Date Brightness Start Highest point End Pass type
(mag) Time Alt. Az. Time Alt. Az. Time Alt. Az.
23 Feb - 00:11:51 10° WSW 00:13:29 11° WSW 00:15:05 10° SW visible
23 Feb - 13:25:08 10° SSE 13:31:23 19° SE 13:37:33 10° E daylight
23 Feb - 15:25:07 10° SW 15:34:38 50° SSE 15:43:53 10° ENE daylight
23 Feb - 17:29:07 10° WSW 17:39:05 79° S 17:48:43 10° E daylight
23 Feb - 19:34:10 10° W 19:43:57 75° SSW 19:53:23 10° ESE visible
23 Feb - 21:39:19 10° WNW 21:48:03 41° SW 21:56:32 10° SSE visible
23 Feb - 23:47:47 10° WSW 23:50:44 12° WSW 23:53:40 10° SW visible
24 Feb - 13:02:43 10° SSE 13:08:35 17° SE 13:14:22 10° E daylight
24 Feb - 15:02:17 10° SW 15:11:45 48° SSE 15:20:58 10° ENE daylight
24 Feb - 17:06:11 10° WSW 17:16:10 78° S 17:25:49 10° E daylight
24 Feb - 19:11:13 10° W 19:21:03 76° SSW 19:30:31 10° ESE visible
24 Feb - 21:16:21 10° WNW 21:25:12 43° SW 21:33:48 10° SSE visible
24 Feb - 23:24:09 10° W 23:27:58 13° WSW 23:31:45 10° SSW visible
25 Feb - 12:40:22 10° SSE 12:45:47 16° SE 12:51:08 10° E daylight
25 Feb - 14:39:28 10° SW 14:48:52 46° SE 14:58:02 10° ENE daylight
25 Feb - 16:43:14 10° WSW 16:53:14 77° SSE 17:02:55 10° E daylight
25 Feb - 18:48:15 10° W 18:58:08 77° SSW 19:07:38 10° ESE visible
25 Feb - 20:53:23 10° WNW 21:02:22 45° SW 21:11:04 10° SSE visible
25 Feb - 23:00:43 10° W 23:05:12 14° SW 23:09:39 10° SSW visible
26 Feb - 12:18:05 10° SSE 12:22:59 15° SE 12:27:50 10° E daylight
26 Feb - 14:16:40 10° SSW 14:26:00 44° SE 14:35:06 10° ENE daylight
26 Feb - 16:20:17 10° WSW 16:30:18 76° SSE 16:40:01 10° E daylight
26 Feb - 18:25:18 10° W 18:35:13 78° S 18:44:45 10° ESE visible
26 Feb - 20:30:24 10° WNW 20:39:31 47° SW 20:48:19 10° SE visible
26 Feb - 22:37:23 10° W 22:42:26 16° SW 22:47:26 10° SSW visible
27 Feb - 11:55:54 10° SSE 12:00:12 14° ESE 12:04:27 10° E daylight
27 Feb - 13:53:53 10° SSW 14:03:07 42° SE 14:12:10 10° ENE daylight
27 Feb - 15:57:21 10° WSW 16:07:23 75° SSE 16:17:06 10° E daylight
27 Feb - 18:02:20 10° W 18:12:18 79° S 18:21:52 10° ESE visible
27 Feb - 20:07:26 10° WNW 20:16:39 49° SSW 20:25:34 10° SE visible
27 Feb - 22:14:07 10° W 22:19:40 17° SW 22:25:08 10° SSW visible
28 Feb - 11:33:53 10° SE 11:37:25 12° ESE 11:40:55 10° ESE daylight
28 Feb - 13:31:07 10° SSW 13:40:15 41° SE 13:49:13 10° ENE daylight
28 Feb - 15:34:25 10° WSW 15:44:28 74° SSE 15:54:11 10° E daylight
28 Feb - 17:39:23 10° W 17:49:22 80° S 17:58:59 10° ESE daylight
28 Feb - 19:44:28 10° WNW 19:53:48 51° SSW 20:02:48 10° SE visible
28 Feb - 21:50:55 10° W 21:56:53 19° SW 22:02:46 10° SSW visible
29 Feb - 11:12:09 10° SE 11:14:38 11° ESE 11:17:06 10° ESE daylight
29 Feb - 13:08:20 10° SSW 13:17:23 39° SE 13:26:16 10° ENE daylight
29 Feb - 15:11:30 10° WSW 15:21:32 72° SSE 15:31:17 10° E daylight
29 Feb - 17:16:26 10° W 17:26:26 81° S 17:36:06 10° ESE daylight
29 Feb - 19:21:31 10° WNW 19:30:56 53° SSW 19:40:01 10° SE visible
29 Feb - 21:27:45 10° W 21:34:07 20° SW 21:40:21 10° S visible
01 Mar - 12:45:36 10° SSW 12:54:31 37° SE 13:03:19 10° ENE daylight
01 Mar - 14:48:34 10° WSW 14:58:36 71° SSE 15:08:23 10° E daylight
01 Mar - 16:53:28 10° W 17:03:30 81° S 17:13:12 10° E daylight
01 Mar - 18:58:33 10° WNW 19:08:04 55° SSW 19:17:13 10° SE visible
01 Mar - 21:04:37 10° W 21:11:19 22° SW 21:17:54 10° S visible
02 Mar - 12:22:53 10° SSW 12:31:40 35° SE 12:40:20 10° ENE daylight
02 Mar - 14:25:39 10° WSW 14:35:41 69° SSE 14:45:28 10° E daylight
02 Mar - 16:30:30 10° W 16:40:34 82° S 16:50:18 10° E daylight
02 Mar - 18:35:35 10° WNW 18:45:11 57° SSW 18:54:25 10° SE visible
02 Mar - 20:41:30 10° W 20:48:32 23° SW 20:55:25 10° S visible
03 Mar - 12:00:09 10° SSW 12:08:49 34° SE 12:17:21 10° ENE daylight
03 Mar - 14:02:44 10° WSW 14:12:46 68° SSE 14:22:33 10° E daylight
03 Mar - 16:07:32 10° W 16:17:38 82° S 16:27:24 10° E daylight
03 Mar - 18:12:37 10° WNW 18:22:17 59° SSW 18:31:36 10° SE visible
03 Mar - 20:18:25 10° W 20:25:44 25° SW 20:32:53 10° S visible
